Terminal Aerodrome Forecast
Issued by NWS Buffalo, NY

Home | Current Version | Previous Version | Text Only | Print | Product List | Glossary On
Versions: 1 2 3 4 5 6 7 8 9 10 11 12 13 14 15 16 17 18 19 20 21 22 23 24 25 26
611
FTUS41 KBUF 110916 AAA
TAFROC
TAF AMD
KROC 110916Z 1109/1206 27014KT P6SM BKN040
     FM111000 29015G22KT 6SM -SN BLSN OVC025
      TEMPO 1110/1112 1SM -SN
     FM111200 30017KT 1SM -SN BLSN OVC015
     FM111600 30019G25KT 3SM -SN BLSN OVC025
     FM112200 29017KT 5SM -SN BLSN OVC025
     FM120000 29015KT P6SM OVC025
     FM120300 28011KT P6SM OVC050=

USA.gov is the U.S. government's official web portal to all federal, state and local government web resources and services.